[ hide orbit diagram ]
For accurate long-term ephemerides, please instead use our Horizons system.This orbit viewer was implemented using two-body methods, and hence should not be used for determining accurate long-term trajectories (over several years or decades) or planetary encounter circumstances.
Orbital Elements at Epoch 2459200.5 (2020-Dec-17.0) TDB
Reference: JPL 18 (heliocentric ecliptic J2000)
Element | Value | Uncertainty (1-sigma) | Units |
e | .0407971530120048 | 5.2996e-08 | |
a | 2.637328778063763 | 2.4986e-08 | au |
q | 2.529733272362132 | 1.482e-07 | au |
i | 21.2599188831349 | 5.4589e-06 | deg |
node | 253.3645326291502 | 1.5851e-05 | deg |
peri | 171.9390086532941 | 7.9353e-05 | deg |
M | 306.9506440869711 | 7.9626e-05 | deg |
tp | 2459431.027346908351 (2021-Aug-04.52734691) | 0.00034725 | TDB |
period | 1564.389302352002 4.28 | 2.2232e-05 6.087e-08 | d yr |
n | .2301217474823902 | 3.2703e-09 | deg/d |
Q | 2.744924283765394 | 2.6005e-08 | au |
|
| | Orbit Determination Parameters
Additional Information
|
[ show covariance matrix ]
Physical Parameter Table
Parameter |
Symbol |
Value |
Units |
Sigma |
Reference |
Notes |
absolute magnitude |
H |
15.76 |
|
n/a |
E2021B55 |
|
|
283142 Weena | Discovered 2008 Dec. 29 by E. Schwab and R. Kling at Taunus. |
Weena is the major female character in "The Time Machine", an 1895 novel by H. G. Wells. In the 1960 film version, which received an Oscar for time-lapse photographic effects, the role of Weena was played by the actress Yvette Mimieux. |
NOTE: some special characters may not display properly (any characters within {} are an attempt to place the proper accent above a character) |
Reference: MPC batch dated 2013-12-17 | Last Updated: 2013-12-19 |
|
[ show close-approach data ]
|